Content
SEND FEEDBACK

Daily
Averages
Monthly
Summary
United States of America

NEWPORT, NEBRASKA


Home > North America > United States > Nebraska
Elevation: 2238 feet     Latitude: 42 36N     Longitude: 099 20W

WEATHER
 
SELECT A DAY
Number of Records: 465,108;   Date Range: 1/1/95 - 12/16/14
 
SHARE

PRINT THIS DATA

[ ← Previous Day ]
WEATHER ALMANAC - JANUARY 31, 2013
[ Next Day → ]
[ °C ]   °F
Weather ElementAverageHighLow
Temperature4.4 °F10.4 °F (12:35 am)0.1 °F (7:55 pm)
Dewpoint-3.7 °F6.4 °F (12:35 am)-9.2 °F (1:15 pm)
Humidity69.4 %85 % (1:55 am)56 % (1:15 pm)
Barometer30.14 in30.25 in (11:55 am)29.89 in (12:35 am)
Wind Speed10.9 mph27.6 mph (8:35 am)
Wind Gust35.7 mph (8:35 am)
Weather ElementAverage
Visibility8.7 mi
Wind DirectionWNW (293 °)

Weather ElementTotal
Precipitation---
Heating Degree Days59.8 (Base 65)
Averaged from 71 records on January 31, 2013
WEATHER CONDITIONS BREAKOUT
WIND DIRECTION BREAKOUT
WEATHER BY HOUR - JANUARY 31, 2013
[ °C ]   °F
Local TimeTemperatureDewpointHumidityBarometerVisibilityWind DirectionWind SpeedGust SpeedPrecipitationEventsConditions
12:35 AM10.4 °F6.4 °F84 %29.89 in5.0 miNW (320°)5.8 mphSnowLight Snow
12:55 AM10.0 °F5.9 °F83 %29.89 in5.0 miNW (310°)6.9 mphSnowLight Snow
1:15 AM10.0 °F5.7 °F83 %29.89 in7.0 miNW (320°)6.9 mphSnowLight Snow
1:35 AM8.4 °F4.1 °F83 %29.90 in10.0 miWNW (300°)5.8 mphClear
1:55 AM8.6 °F4.8 °F85 %29.89 in10.0 miNW (310°)6.9 mphSnowLight Snow
2:15 AM5.7 °F1.6 °F83 %29.90 in7.0 miWNW (290°)5.8 mphSnowLight Snow
2:35 AM6.8 °F2.7 °F83 %29.91 in4.0 miWNW (290°)5.8 mphSnowLight Snow
2:55 AM7.5 °F3.4 °F83 %29.92 in4.0 miWNW (290°)5.8 mphSnowLight Snow
3:15 AM7.7 °F3.4 °F83 %29.93 in5.0 miNW (320°)8.1 mphSnowLight Snow
3:35 AM7.5 °F3.4 °F83 %29.94 in10.0 miNNW (330°)8.1 mphSnowLight Snow
3:55 AM9.5 °F5.4 °F83 %29.94 in7.0 miNNW (330°)10.4 mphSnowLight Snow
4:15 AM9.5 °F5.0 °F82 %29.94 in7.0 miNW (320°)11.5 mphSnowLight Snow
4:35 AM8.8 °F4.1 °F81 %29.96 in10.0 miNorth (350°)11.5 mphSnowLight Snow
4:55 AM5.7 °F1.0 °F81 %29.97 in5.0 miNorth (360°)16.1 mphHaze
5:15 AM3.9 °F-1.1 °F80 %29.98 in10.0 miNorth (360°)10.4 mphMostly Cloudy
5:35 AM2.7 °F-2.2 °F80 %29.99 in10.0 miNorth (350°)6.9 mphOvercast
5:55 AM2.8 °F-2.2 °F79 %30.01 in10.0 miNW (320°)5.8 mphOvercast
6:15 AM3.9 °F-1.3 °F79 %30.01 in10.0 miNW (320°)9.2 mphOvercast
6:35 AM5.0 °F-0.4 °F78 %30.02 in10.0 miNW (310°)10.4 mphOvercast
6:55 AM4.6 °F-0.8 °F78 %30.04 in10.0 miNW (310°)10.4 mphOvercast
7:15 AM5.9 °F0.0 °F77 %30.06 in5.0 miNNW (330°)16.1 mphHaze
7:35 AM4.6 °F-2.0 °F74 %30.07 in7.0 miNNW (330°)19.6 mph26.5 mphMostly Cloudy
7:55 AM4.1 °F-2.7 °F73 %30.08 in3.0 miNNW (330°)23.0 mph29.9 mphHaze
8:15 AM3.2 °F-3.3 °F74 %30.11 in2.5 miNNW (340°)24.2 mph31.1 mphHaze
8:35 AM2.8 °F-4.9 °F70 %30.13 in4.0 miNNW (330°)27.6 mph35.7 mphHaze
8:55 AM2.1 °F-5.8 °F69 %30.15 in7.0 miNNW (330°)25.3 mph31.1 mphScattered Clouds
9:15 AM2.3 °F-6.3 °F67 %30.17 in5.0 miNW (320°)27.6 mph34.5 mphHaze
9:35 AM1.4 °F-8.3 °F64 %30.18 in4.0 miNW (320°)20.7 mph32.2 mphHaze
9:55 AM0.9 °F-6.5 °F71 %30.21 in5.0 miNNW (340°)19.6 mph25.3 mphHaze
10:15 AM1.0 °F-7.8 °F66 %30.21 in10.0 miNW (320°)18.4 mph23.0 mphScattered Clouds
10:35 AM1.6 °F-8.3 °F63 %30.21 in10.0 miNW (320°)20.7 mph32.2 mphClear
10:55 AM1.9 °F-8.0 °F63 %30.23 in10.0 miNW (320°)18.4 mph26.5 mphClear
11:15 AM1.8 °F-8.7 °F62 %30.24 in10.0 miNW (320°)20.7 mph28.8 mphClear
11:35 AM1.4 °F-8.5 °F63 %30.24 in10.0 miNNW (330°)19.6 mph25.3 mphClear
11:55 AM2.1 °F-8.1 °F62 %30.25 in10.0 miNNW (330°)16.1 mph19.6 mphClear
12:15 PM2.3 °F-8.5 °F61 %30.25 in10.0 miNW (320°)16.1 mph24.2 mphClear
12:35 PM2.7 °F-8.5 °F60 %30.25 in10.0 miNNW (330°)17.3 mphClear
12:55 PM2.8 °F-8.9 °F58 %30.24 in10.0 miNW (320°)18.4 mph24.2 mphClear
1:15 PM3.2 °F-9.2 °F56 %30.24 in10.0 miNW (310°)18.4 mph25.3 mphClear
1:35 PM3.2 °F-8.7 °F58 %30.24 in10.0 miNW (310°)17.3 mphClear
1:55 PM3.2 °F-8.7 °F58 %30.24 in10.0 miNW (320°)16.1 mph21.9 mphClear
2:15 PM3.7 °F-7.6 °F59 %30.24 in10.0 miNW (320°)16.1 mph20.7 mphClear
2:35 PM3.2 °F-8.7 °F58 %30.24 in10.0 miNW (310°)13.8 mph21.9 mphClear
2:55 PM3.9 °F-7.8 °F58 %30.24 in10.0 miNW (310°)10.4 mphClear
3:15 PM3.9 °F-7.8 °F58 %30.24 in10.0 miNW (310°)11.5 mphClear
3:35 PM4.6 °F-7.2 °F58 %30.23 in10.0 miNW (310°)9.2 mphClear
3:55 PM4.8 °F-6.7 °F59 %30.24 in10.0 miWNW (300°)8.1 mphClear
4:15 PM5.0 °F-6.5 °F59 %30.24 in10.0 miWNW (300°)8.1 mphClear
4:35 PM5.4 °F-6.7 °F58 %30.24 in10.0 miNW (310°)10.4 mphClear
4:55 PM5.5 °F-5.8 °F60 %30.24 in10.0 miWest (280°)5.8 mphClear
5:15 PM4.8 °F-6.3 °F60 %30.23 in10.0 miWest (280°)6.9 mphClear
5:35 PM4.6 °F-6.5 °F60 %30.23 in10.0 miWNW (290°)4.6 mphScattered Clouds
5:55 PM3.6 °F-6.7 °F62 %30.23 in10.0 miWNW (290°)3.5 mphScattered Clouds
6:15 PM3.6 °F-6.7 °F62 %30.22 in10.0 miWNW (300°)4.6 mphClear
6:35 PM1.4 °F-7.6 °F66 %30.23 in10.0 miWNW (290°)5.8 mphClear
6:55 PM1.2 °F-7.4 °F67 %30.23 in10.0 miWNW (290°)4.6 mphClear
7:15 PM1.9 °F-7.1 °F66 %30.22 in10.0 miNW (310°)4.6 mphClear
7:35 PM1.0 °F-7.6 °F67 %30.22 in10.0 miNNW (330°)3.5 mphClear
7:55 PM0.1 °F-7.8 °F69 %30.22 in10.0 miCalmClear
8:15 PM0.1 °F-8.0 °F69 %30.23 in10.0 miCalmScattered Clouds
8:35 PM0.7 °F-6.7 °F71 %30.22 in10.0 miWSW (240°)4.6 mphOvercast
8:55 PM1.4 °F-5.8 °F72 %30.22 in10.0 miWSW (240°)4.6 mphOvercast
9:15 PM2.5 °F-5.3 °F70 %30.22 in10.0 miSW (230°)4.6 mphOvercast
9:35 PM3.9 °F-4.7 °F67 %30.22 in10.0 miSW (230°)3.5 mphOvercast
9:55 PM4.8 °F-3.6 °F68 %30.22 in10.0 miWSW (240°)4.6 mphOvercast
10:15 PM5.2 °F-3.3 °F68 %30.22 in10.0 miSW (220°)5.8 mphOvercast
10:35 PM6.3 °F-2.2 °F68 %30.22 in10.0 miSW (220°)6.9 mphOvercast
10:55 PM7.3 °F-1.7 °F67 %30.22 in10.0 miSW (220°)4.6 mphOvercast
11:15 PM8.2 °F-0.9 °F66 %30.21 in10.0 miSSW (210°)5.8 mphOvercast
11:35 PM8.6 °F-0.6 °F66 %30.21 in10.0 miSSW (200°)5.8 mphOvercast
11:55 PM8.6 °F-0.6 °F66 %30.20 in10.0 miSouth (190°)4.6 mphOvercast
Hourly data recorded from KANW, located miles away from Newport, Nebraska







STORIES FROM OUR PARTNERS